Погода в Приволжском

Россия / Саратовская область     51°05′21″N   45°56′55″E
темп.,
°C
ветер,
м/с
пор.,
м/с
влажн.,
%
обл.,
%
осадки,
мм/ч
давл.,
гПа
погр.,
м
15 апреля, чт
чт1501:00+10в23685 0.0 101853
04:00+9с337196 0.0 101816
07:00+8ссв3374100 0.0 101718
10:00+11в236019 0.0 1017160
13:00+15юв3645100 0.0 1016497
16:00+16юв6838100 0.0 1015700
19:00+15вюв4547100 0.0 101564
22:00+12юв1252100 0.0 101511
16 апреля, пт
пт1601:00+11св1160100 0.0 101510
04:00+10с3363100 0.0 101612
07:00+10с336697 0.0 101629
10:00+13ссв455648 0.0 1017193
13:00+16ссв334570 0.0 1017467
16:00+17св333983 0.0 1017758
19:00+15всв234891 0.0 101725
22:00+12всв346083 0.0 101844
17 апреля, сб
сб1701:00+11в126889 0.0 101811
04:00+10св127137 0.0 101910
07:00+9св3372100 0.0 101928
10:00+12в346189 0.0 1019252
13:00+15вюв354722 0.0 1018832
16:00+16юв5641100 0.0 10171044
19:00+9з91385100 0.6 1020329
22:00+8сз4586100 5.3 1021147
18 апреля, вс
вс1801:00+7с22850 0.1 102124
04:00+6ссз22810 0.1 102124
07:00+6сз22800 0.0 102038
10:00+9з22670 0.0 1020253
13:00+11юз01605 0.0 1019739
16:00+12ююв115735 0.0 1018791
19:00+11ссз116043 0.0 1018122
22:00+10св336183 0.0 101832
19 апреля, пн
пн1901:00+8св579018 0.0 1018124
04:00+7с349390 0.0 101864
07:00+7ссв468977 0.0 1018145
10:00+10св677499 0.1 1018443
13:00+8св81076100 0.0 1020438
16:00+7св71085100 1.1 1020436
19:00+7св61089100 2.8 1021456
22:00+4всв71388100 4.2 1023676